Location: Unspecified
(42.3650°N, 71.1030°W)
Time: 05:06:49
(UTC+00:00)

Explorer 11/Cluster Stage 4 - Pass Details

Date: 27 June 2024
Orbit: 465 x 1216 km, 28.8° (Epoch: 13 July)

Event Time Altitude Azimuth Distance (km) Brightness Sun altitude
Rises 01:56:11 0° 253° (WSW) 4,069 10.6 -13.4°
Reaches altitude 10° 01:59:28 10° 243° (WSW) 3,144 9.8 -13.7°
Maximum altitude 02:05:57 28° 189° (S) 2,100 8.4 -14.5°
Enters shadow 02:09:33 20° 151° (SSE) 2,441 8.4 -14.9°
Drops below altitude 10° 02:12:17 10° 134° (SE) 3,056 - -15.2°
Sets 02:15:26 0° 123° (ESE) 3,937 - -15.5°
